DIAMOND GREEN

Last updated on Wed Apr 03 2024 01:03:32 GMT+0100 (British Summer Time)

1 42785U 17036W 24093.07528165 .04960212 23070-5 12056-2 0 9992 2 42785 97.0738 133.7605 0007154 242.0854 117.9716 16.29363655378049
UTC large
Height (km)
Speed (km/s)
/
Latitude / Longitude
Inclination (degrees)
Orbital Period (minutes)
Azimuth
Elevation
Range (km)
Doppler Factor

Next 0 passes for location: London (51.5072 / 0.1276)

Sorry there are no passes over London.